Location: City of Moscow
(46.7306°N, 116.9989°W)
Time: 14:23:04
(UTC+00:00)

CUBEBUG 2 - Pass Details

Date: 20 April 2026
Orbit: 546 x 628 km, 97.9° (Epoch: 15 May)

Event Time Altitude Azimuth Distance (km) Brightness Sun altitude
Rises 09:36:35 0° 21° (NNE) 2,857 ? -26.7°
Reaches altitude 10° 09:38:58 10° 32° (NNE) 1,935 ? -26.5°
Maximum altitude 09:42:45 32° 96° (E) 1,012 ? -26.2°
Enters shadow 09:42:53 32° 100° (E) 1,014 ? -26.2°
